923  
ASUS41 KGYX 312305  
RWRGYX  
WEATHER ROUNDUP FOR MAINE AND NEW HAMPSHIRE  
NATIONAL WEATHER SERVICE GRAY ME  
700 PM EDT SUN MAY 31 2020  
 
MEZ002-005-006-010-012-015-018-020-021-024-026-027-029-010000-  
MAINE  
 
CITY SKY/WX TMP DP RH WIND PRES REMARKS
 
PORTLAND MOSUNNY 57 29 34 NW16G26 30.04R  
SANFORD SUNNY 56 30 37 NW16G28 30.05R  
BAR HARBOR SUNNY 55 29 36 NW16G24 29.98R  
WISCASSET SUNNY 55 28 35 NW8 30.04R  
ROCKLAND SUNNY 54 29 38 W16G22 30.01R  
FRYEBURG PTSUNNY 52 32 46 NW9 30.07R  
LEWISTONAUBURN PTSUNNY 54 30 40 NW13G21 30.05R  
AUGUSTA PTSUNNY 53 29 39 NW12 30.04R  
WATERVILLE MOSUNNY 51 28 41 NW13G21 30.02R  
BANGOR MOSUNNY 51 28 41 NW18G32 30.03R  
GREENVILLE N/A 41 26 55 NW15G26 30.00S  
MILLINOCKET MOSUNNY 46 27 47 NW14G23 30.04R  
HOULTON CLOUDY 49 34 56 N12G21 29.96R  
PRESQUE ISLE CLOUDY 46 31 55 NW18G24 29.99R  
FRENCHVILLE CLOUDY 43 27 53 NW10G22 29.96R  
CARIBOU CLOUDY 46 27 47 NW14G24 29.97R  

 
 
NHZ002-005-008-009-011-012-014-010000-  
NEW HAMPSHIRE  
 
CITY SKY/WX TMP DP RH WIND PRES REMARKS
 
PORTSMOUTH MOSUNNY 58 27 30 NW14 30.03R  
ROCHESTER SUNNY 55 31 39 NW16G28 30.05R  
NASHUA PTSUNNY 59 32 36 NW14 30.06R  
MANCHESTER PTSUNNY 60 30 32 NW13G23 30.04R  
CONCORD MOSUNNY 55 32 41 NW20G28 30.08R  
LACONIA PTSUNNY 52 31 44 NW10G18 30.08R  
PLYMOUTH FAIR 50 29 44 NW12G20 30.10R  
BERLIN PTSUNNY 47 29 49 VRB3 30.08R  
WHITEFIELD CLOUDY 46 31 55 NW7 30.09S  
JAFFREY PTSUNNY 54 32 43 NW9G21 30.07R  
KEENE MOSUNNY 54 34 46 N14 30.09R  
LEBANON PTSUNNY 53 30 41 N9 30.11R  
MT WASHINGTON FOG 21 21 100 NW56G66 N/A VSB 1/16WCI -2  

 
 
VTZ005-007-008-010000-  
VERMONT  
 
CITY SKY/WX TMP DP RH WIND PRES REMARKS
 
ST JOHNSBURY N/A 49 30 48 MISG 30.09S  
MONTPELIER PTSUNNY 46 31 55 W10 30.15S  
BURLINGTON PTSUNNY 51 29 42 NW8 30.13S  

 
 
MAZ007-012-024-CTZ003-RIZ002-NYZ038-NYZ072-010000-  
SOUTHERN NEW ENGLAND AND NY  
 
CITY SKY/WX TMP DP RH WIND PRES REMARKS
 
BOSTON MOSUNNY 62 28 27 NW14G23 30.03R  
WORCESTER PTSUNNY 57 33 40 NW12 30.05R  
NANTUCKET SUNNY 60 40 47 NE10 30.03R  
PROVIDENCE MOSUNNY 64 33 31 NW14G21 30.04R  
HARTFORD MOSUNNY 61 32 33 NW16G25 30.07R  
ALBANY PTSUNNY 58 34 40 NW15 30.12R  
NEW YORK CITY MOSUNNY 67 32 27 NW15 30.06R  

 
 
ANZ081-ANZ082-ANZ150-NHZ014-MEZ023>029-010000-  
COASTAL MARINE OBSERVATIONS  
 
STATION/POSITION TIME TEMP WIND PRES WAVE
 
AIR SEA DIR/SP/G HT/PER  
(UTC) (F) (DEG/KT/KT) (MB) (FT/S)  
MOUNT DESERT ROC 2200 290/ 17/ 18 1013.4R  
ISLE OF SHOALS 2200 57 320/ 20/ 23 1016.3R  
JEFFREYS LEDGE 2208 55 N/A 4/ 5  
GEORGES BANK BUO 2250 48 1015.0R 5/ 8  

 
   
............KEY...........
 
 
WCI - WIND CHILL  
TC - TEMPERATURE IN CELSIUS  
VSB - VISIBILITY
IN MILES  
HX - HEAT INDEX  
FAIR- INDICATES FEW OR NO CLOUDS BELOW 12,000 FT, WITH NO  
SIGNIFICANT WEATHER AND/OR S TO VISIBILITY.  
 
 
 
CLICK HERE TO GO TO PREVIOUS BULLETINS.

The Nexlab ME Page
The Nexlab NH Page Main Text Page